Hourly Weather Bolshie Letcy

Today, 17 June, Thursday

Time Temperature Precipitation Wind Pressure Humidity
00:00 +13°C° 0 mm 2 mps 752 mmHg 73%
01:00 +12°C° 0 mm 2 mps 752 mmHg 76%
02:00 +12°C° 0 mm 2 mps 752 mmHg 79%
03:00 +12°C° 0 mm 2 mps 753 mmHg 79%
04:00 +12°C° 0 mm 2 mps 753 mmHg 79%
05:00 +13°C° 0 mm 2 mps 753 mmHg 80%
06:00 +15°C° 0 mm 2 mps 753 mmHg 73%
07:00 +17°C° 0 mm 2 mps 754 mmHg 67%
08:00 +19°C° 0 mm 2 mps 754 mmHg 61%
09:00 +21°C° 0 mm 1 mps 754 mmHg 57%
10:00 +23°C° 0 mm 1 mps 754 mmHg 53%
11:00 +24°C° 0 mm 1 mps 755 mmHg 49%
12:00 +25°C° 0 mm 1 mps 755 mmHg 47%
13:00 +25°C° 0 mm 1 mps 755 mmHg 46%
14:00 +26°C° 0 mm 1 mps 754 mmHg 44%
15:00 +26°C° 0 mm 1 mps 754 mmHg 46%
16:00 +26°C° 0 mm 1 mps 754 mmHg 47%
17:00 +25°C° 0 mm 1 mps 754 mmHg 49%
18:00 +24°C° 0 mm 1 mps 754 mmHg 56%
19:00 +22°C° 0 mm 1 mps 754 mmHg 63%
20:00 +18°C° 0 mm 0 mps 754 mmHg 70%
21:00 +17°C° 0 mm 0 mps 755 mmHg 73%
22:00 +16°C° 0 mm 0 mps 755 mmHg 76%
23:00 +15°C° 0 mm 0 mps 755 mmHg 79%

Tomorrow, 18 June, Friday

Time Temperature Precipitation Wind Pressure Humidity
00:00 +15°C° 0 mm 0 mps 755 mmHg 80%
01:00 +15°C° 0 mm 1 mps 755 mmHg 82%
02:00 +15°C° 0 mm 1 mps 755 mmHg 84%
03:00 +15°C° 0 mm 1 mps 755 mmHg 84%
04:00 +16°C° 0 mm 1 mps 755 mmHg 84%
05:00 +16°C° 0 mm 1 mps 756 mmHg 84%
06:00 +19°C° 0 mm 1 mps 756 mmHg 78%
07:00 +21°C° 0 mm 1 mps 756 mmHg 71%
08:00 +22°C° 0 mm 1 mps 756 mmHg 65%
09:00 +24°C° 0 mm 2 mps 756 mmHg 60%
10:00 +25°C° 0 mm 2 mps 756 mmHg 56%
11:00 +26°C° 0 mm 2 mps 756 mmHg 51%
12:00 +26°C° 0 mm 2 mps 755 mmHg 50%
13:00 +27°C° 0 mm 3 mps 755 mmHg 50%
14:00 +27°C° 0 mm 3 mps 755 mmHg 49%
15:00 +27°C° 0 mm 3 mps 755 mmHg 52%
16:00 +26°C° 0 mm 3 mps 755 mmHg 55%
17:00 +26°C° 0 mm 3 mps 754 mmHg 58%
18:00 +24°C° 0 mm 2 mps 754 mmHg 65%
19:00 +21°C° 0 mm 2 mps 754 mmHg 73%
20:00 +20°C° 0 mm 2 mps 754 mmHg 80%
21:00 +19°C° 0 mm 2 mps 754 mmHg 83%
22:00 +18°C° 0 mm 2 mps 755 mmHg 86%
23:00 +17°C° 0 mm 2 mps 755 mmHg 88%

Day after tomorrow, 19 June, Saturday

Time Temperature Precipitation Wind Pressure Humidity
00:00 +16°C° 0 mm 2 mps 755 mmHg 89%
01:00 +16°C° 0 mm 2 mps 755 mmHg 90%
02:00 +15°C° 0 mm 2 mps 755 mmHg 91%
03:00 +15°C° 0 mm 2 mps 755 mmHg 90%
04:00 +16°C° 0 mm 2 mps 755 mmHg 89%
05:00 +16°C° 0 mm 2 mps 755 mmHg 89%
06:00 +18°C° 0 mm 2 mps 755 mmHg 82%
07:00 +20°C° 0 mm 2 mps 755 mmHg 76%
08:00 +22°C° 0 mm 3 mps 755 mmHg 70%
09:00 +24°C° 0 mm 3 mps 755 mmHg 65%
10:00 +25°C° 0 mm 3 mps 754 mmHg 61%
11:00 +26°C° 0 mm 3 mps 754 mmHg 56%
12:00 +27°C° 0 mm 3 mps 754 mmHg 55%
13:00 +27°C° 0 mm 3 mps 754 mmHg 53%
14:00 +27°C° 0 mm 3 mps 753 mmHg 52%
15:00 +27°C° 0 mm 3 mps 753 mmHg 55%
16:00 +27°C° 0 mm 3 mps 753 mmHg 58%
17:00 +27°C° 0 mm 3 mps 753 mmHg 60%
18:00 +25°C° 0 mm 3 mps 753 mmHg 68%
19:00 +23°C° 0 mm 2 mps 753 mmHg 76%
20:00 +21°C° 0 mm 2 mps 753 mmHg 83%
21:00 +20°C° 0 mm 2 mps 753 mmHg 86%
22:00 +19°C° 0 mm 2 mps 753 mmHg 88%
23:00 +17°C° 0 mm 2 mps 753 mmHg 90%

20 June, Sunday

Time Temperature Precipitation Wind Pressure Humidity
00:00 +17°C° 0 mm 2 mps 753 mmHg 92%
01:00 +17°C° 0 mm 2 mps 753 mmHg 93%
02:00 +16°C° 0 mm 2 mps 753 mmHg 94%
03:00 +17°C° 0 mm 2 mps 753 mmHg 93%
04:00 +17°C° 0 mm 2 mps 753 mmHg 92%
05:00 +18°C° 0 mm 2 mps 753 mmHg 92%
06:00 +19°C° 0 mm 2 mps 753 mmHg 86%
07:00 +21°C° 0 mm 2 mps 752 mmHg 80%
08:00 +24°C° 0 mm 3 mps 752 mmHg 74%
09:00 +25°C° 0 mm 3 mps 752 mmHg 70%
10:00 +26°C° 0 mm 3 mps 752 mmHg 67%
11:00 +27°C° 0 mm 4 mps 752 mmHg 63%
12:00 +28°C° 0.3 mm 3 mps 752 mmHg 63%
13:00 +28°C° 0.3 mm 3 mps 752 mmHg 63%
14:00 +28°C° 0.3 mm 3 mps 751 mmHg 63%
15:00 +28°C° 0.2 mm 3 mps 751 mmHg 64%
16:00 +28°C° 0.2 mm 3 mps 751 mmHg 65%
17:00 +28°C° 0.2 mm 3 mps 751 mmHg 66%
18:00 +26°C° 0.4 mm 3 mps 751 mmHg 73%
19:00 +25°C° 0.4 mm 2 mps 751 mmHg 79%
20:00 +23°C° 0.4 mm 2 mps 751 mmHg 86%
21:00 +21°C° 0.1 mm 2 mps 751 mmHg 89%
22:00 +21°C° 0.1 mm 2 mps 751 mmHg 91%
23:00 +20°C° 0.1 mm 2 mps 751 mmHg 94%

21 June, Monday

Time Temperature Precipitation Wind Pressure Humidity
00:00 +19°C° 0 mm 2 mps 751 mmHg 94%
01:00 +19°C° 0 mm 2 mps 751 mmHg 94%
02:00 +19°C° 0 mm 2 mps 751 mmHg 94%
03:00 +19°C° 0 mm 2 mps 751 mmHg 94%
04:00 +19°C° 0 mm 2 mps 751 mmHg 93%
05:00 +20°C° 0 mm 1 mps 751 mmHg 93%
06:00 +20°C° 0 mm 2 mps 751 mmHg 87%
07:00 +23°C° 0 mm 2 mps 751 mmHg 81%
08:00 +25°C° 0 mm 3 mps 751 mmHg 75%
09:00 +26°C° 0 mm 3 mps 751 mmHg 68%
10:00 +27°C° 0 mm 3 mps 751 mmHg 62%
11:00 +29°C° 0 mm 3 mps 751 mmHg 55%
12:00 +29°C° 0 mm 3 mps 751 mmHg 52%
13:00 +30°C° 0 mm 3 mps 750 mmHg 49%
14:00 +30°C° 0 mm 3 mps 750 mmHg 46%
15:00 +30°C° 0 mm 3 mps 750 mmHg 50%
16:00 +30°C° 0 mm 3 mps 750 mmHg 54%
17:00 +29°C° 0 mm 3 mps 750 mmHg 59%
18:00 +27°C° 0 mm 3 mps 750 mmHg 66%
19:00 +26°C° 0 mm 3 mps 750 mmHg 74%
20:00 +24°C° 0 mm 2 mps 750 mmHg 82%
21:00 +23°C° 0 mm 2 mps 750 mmHg 83%
22:00 +21°C° 0 mm 2 mps 750 mmHg 85%
23:00 +20°C° 0 mm 2 mps 750 mmHg 87%

22 June, Tuesday

Time Temperature Precipitation Wind Pressure Humidity
00:00 +20°C° 0 mm 2 mps 750 mmHg 88%
01:00 +19°C° 0 mm 2 mps 750 mmHg 90%
02:00 +19°C° 0 mm 2 mps 750 mmHg 91%
03:00 +19°C° 0 mm 2 mps 750 mmHg 91%
04:00 +20°C° 0 mm 2 mps 750 mmHg 91%
05:00 +20°C° 0 mm 2 mps 750 mmHg 91%
06:00 +22°C° 0 mm 3 mps 750 mmHg 85%
07:00 +25°C° 0 mm 4 mps 750 mmHg 78%
08:00 +26°C° 0 mm 4 mps 750 mmHg 71%
09:00 +28°C° 0 mm 5 mps 750 mmHg 64%
10:00 +29°C° 0 mm 5 mps 750 mmHg 57%
11:00 +32°C° 0 mm 5 mps 750 mmHg 51%
12:00 +32°C° 0 mm 5 mps 750 mmHg 49%
13:00 +33°C° 0 mm 5 mps 750 mmHg 48%
14:00 +33°C° 0 mm 5 mps 750 mmHg 47%
15:00 +33°C° 0 mm 4 mps 750 mmHg 50%
16:00 +32°C° 0 mm 4 mps 750 mmHg 53%
17:00 +32°C° 0 mm 4 mps 750 mmHg 56%
18:00 +29°C° 0 mm 3 mps 750 mmHg 64%
19:00 +27°C° 0 mm 3 mps 750 mmHg 72%
20:00 +25°C° 0 mm 3 mps 750 mmHg 80%
21:00 +24°C° 0 mm 3 mps 750 mmHg 82%
22:00 +22°C° 0 mm 3 mps 750 mmHg 83%
23:00 +21°C° 0 mm 3 mps 750 mmHg 84%
Show more